Regional Weather Roundup
Issued by NWS

Home | Current Version | Previous Version | Graphics & Text | Print | Product List | Glossary On
Versions: 1 2 3 4 5 6 7 8 9 10 11 12 13 14 15 16 17 18 19 20 21 22 23 24 25 26 27 28 29 30 31 32 33 34 35 36 37 38 39 40 41 42 43 44 45 46 47 48 49
000
ASUS45 KSLC 260310
RWRUT

UTAH REGIONAL WEATHER ROUNDUP
NATIONAL WEATHER SERVICE SALT LAKE CITY UT
800 PM MST SUN JAN 25 2015

UTZ001>011-023>025-260400-

NORTHERN UTAH

CITY           SKY/WX    TMP DP  RH WIND       PRES   REMARKS
BRIGHAM CITY   PTCLDY    36  31  84 CALM      30.42F
HILL AFB       PTCLDY    38  25  58 N5        30.39F WCI  35
LOGAN          CLEAR     32  29  88 CALM      30.43S
OGDEN          MOCLDY    37  28  70 NE3       30.40F
PROVO AIRPORT  NOT AVBL
SALT LAKE CITY PTCLDY    36  32  85 W7        30.39F WCI  30
VERNAL         PTCLDY    28  20  71 W3        30.39R
WENDOVER       CLEAR     32  25  74 W6        30.42S WCI  26
HEBER CITY     CLEAR     30  27  86 CALM      30.41S
WEST JORDAN    CLEAR     37  32  81 CALM      30.40F

$$

UTZ012>022-026-027-260400-

SOUTHERN/CENTRAL UTAH

CITY           SKY/WX    TMP DP  RH WIND       PRES   REMARKS
BLANDING       CLEAR     44  24  45 CALM      30.37R
BRYCE CANYON   CLEAR     35  26  69 W5        30.40R WCI  31
CEDAR CITY     CLEAR     35  28  75 S3        30.36R
DELTA          CLEAR     39  32  76 N7        30.38S WCI  34
MILFORD        CLEAR     38  30  73 N14       30.36S WCI  30
MOAB/CYNLANDS  CLEAR     33  22  63 W5        30.33S WCI  29
PRICE          CLEAR     32  20  61 N5        30.35R WCI  27
ST GEORGE      CLEAR     54  28  37 N5        30.27R

$$

REGIONAL REPORTS     COLORADO/ARIZONA

CITY           SKY/WX    TMP DP  RH WIND       PRES   REMARKS
CRAIG, CO      PTCLDY    23  19  85 CALM      30.40S
GRAND JUNCTION CLEAR     36  23  59 E5        30.37R WCI  32
RIFLE          CLEAR     33  25  72 CALM      30.39R
MONTROSE       PTCLDY    30  18  60 SE8       30.40R WCI  22
CORTEZ         CLEAR     32  22  66 E5        30.28R WCI  27
PAGE, AZ       NOT AVBL
GRAND CANYON   PTCLDY    31  20  63 E3        30.34S
KINGMAN        PTCLDY    53  28  38 E12       30.17R
FLAGSTAFF      CLEAR     39  21  48 E6        30.34R WCI  35

$$

REGIONAL REPORTS    NEVADA/IDAHO/WYOMING

CITY           SKY/WX    TMP DP  RH WIND       PRES   REMARKS
LAS VEGAS, NV  PTCLDY    63  32  31 SW8       30.11S
ELY            CLEAR     40  27  59 CALM      30.40R
ELKO           CLEAR     38  31  76 E3        30.37S
POCATELLO, ID  FOG       31  31 100 NE8       30.46R VSB 1/2 WCI  23
BURLEY         CLEAR     33  30  88 NE14      30.40R WCI  23
EVANSTON, WY   MOCLDY    36  29  75 W6        30.44R WCI  31
ROCK SPRINGS   PTCLDY    34  25  69 W9        30.37R WCI  27
KEMMERER       CLOUDY    34  30  86 W6        30.43S WCI  29

$$


USA.gov is the U.S. government's official web portal to all federal, state and local government web resources and services.